Volver al catálogo

DELTA 1 DEB

ActivoSSO
NORAD 10767·DEBRIS·🇺🇸 United States

Lanzado Jul 29, 1976 desde Vandenberg Space Force Base

Loading…

Próximos Pases (próximas 24 horas)

TLE

ActualizadoSource: Space-Track

Época: Sep 14, 2026, 17:53 UTC

1 10767U 76077BQ  26257.74532127 -.00000027  00000-0  15589-3 0  9992
2 10767 102.4380 243.5452 0065233  80.5966  94.2617 12.31965302253897

Sigue DELTA 1 DEB en tiempo real con AllMySat

Download on the App Store